Weather History for Tampa Macdill AFB, FL

Change the Weather History Date:

Sunday, August 4, 2013

  Actual Average Record
Temperature  
Mean Temperature 87 °F -  
Max Temperature 92 °F 87 °F 94 °F (2012)
Min Temperature 81 °F 73 °F 69 °F (2002)
Cooling Degree Days 22    
Growing Degree Days 37 (Base 50)    
Moisture  
Dew Point 79 °F    
Average Humidity 79    
Maximum Humidity 91    
Minimum Humidity 63    
Precipitation  
Precipitation 0.01 in - - ()
Sea Level Pressure  
Sea Level Pressure 30.07 in    
Wind  
Wind Speed 4 mph (West)    
Max Wind Speed 9 mph    
Max Gust Speed 20 mph    
Visibility 8 miles    
Events Rain , Thunderstorm    
Averages and records for this station are not official NWS values.
T = Trace of Precipitation, MM = Missing Value Source: NWS Daily Summary

Daily Weather History Graph

Daily Weather History Graph

Search for Another Location

Airport:

Trip Planner

Search our weather history database for the weather conditions in past years. The results will help you decide how hot, cold, wet, or windy it might be!

Date:

Astronomy

Aug. 04, 2013 Rise Set
Actual Time 6:54 AM EDT 8:17 PM EDT
Civil Twilight 6:29 AM EDT 8:42 PM EDT
Nautical Twilight 5:59 AM EDT 9:12 PM EDT
Astronomical Twilight 5:28 AM EDT 9:43 PM EDT
Moon 4:56 AM EDT (8/4) 6:39 PM EDT (8/4)
Length of Visible Light 14h 12m
Length of Day
13h 22m
Waning Crescent, 5% of the Moon is Illuminated
Aug 4
Waning Crescent
Aug 6
New
Aug 14
First Quarter
Aug 20
Full
Aug 28
Last Quarter

Hourly Weather History & Observations

Time (EDT) Temp. Heat Index Dew Point Humidity Pressure Visibility Wind Dir Wind Speed Gust Speed Precip Events Conditions
12:43 AM 82.4 °F 92.4 °F 78.8 °F 89% 30.10 in 10.0 mi Variable 3.5 mph - N/A   Mostly Cloudy
12:53 AM 82.4 °F 92.4 °F 78.8 °F 89% 30.10 in 10.0 mi Variable 1.2 mph - N/A   Mostly Cloudy
12:58 AM 82.6 °F 92.3 °F 78.4 °F 87% 30.11 in 10.0 mi Calm Calm - N/A   Mostly Cloudy
1:58 AM 81.1 °F 88.7 °F 77.7 °F 89% 30.09 in 10.0 mi WSW 2.3 mph - N/A   Clear
2:58 AM 81.9 °F 90.5 °F 78.1 °F 88% 30.07 in 10.0 mi WSW 3.5 mph - N/A   Clear
3:58 AM 81.7 °F 90.2 °F 78.3 °F 89% 30.06 in 10.0 mi West 2.3 mph - N/A   Clear
4:58 AM 81.9 °F 90.8 °F 78.4 °F 89% 30.05 in 10.0 mi WSW 4.6 mph - N/A   Clear
5:58 AM 81.5 °F 90.2 °F 78.6 °F 91% 30.06 in 10.0 mi WSW 3.5 mph - N/A   Clear
6:58 AM 81.1 °F 88.9 °F 78.1 °F 90% 30.07 in 10.0 mi WSW 3.5 mph - N/A   Clear
7:58 AM 84.0 °F 96.0 °F 79.0 °F 85% 30.09 in 10.0 mi WSW 4.6 mph - N/A   Clear
8:58 AM 87.8 °F 103.1 °F 79.3 °F 76% 30.10 in 10.0 mi WSW 5.8 mph - N/A   Clear
9:58 AM 90.1 °F 106.3 °F 79.0 °F 70% 30.10 in 10.0 mi SW 5.8 mph - N/A   Clear
10:58 AM 91.9 °F 106.6 °F 77.7 °F 63% 30.10 in 10.0 mi WSW 8.1 mph - N/A   Scattered Clouds
11:43 AM 93.2 °F 110.2 °F 78.8 °F 63% 30.09 in 10.0 mi West 3.5 mph - N/A   Drizzle
11:53 AM 89.6 °F 108.2 °F 80.6 °F 75% 30.09 in 2.0 mi Variable 3.5 mph - N/A Rain Light Rain
11:58 AM 89.1 °F 105.7 °F 79.7 °F 74% 30.10 in 1.8 mi NW 4.6 mph - 0.00 in Rain Light Rain
12:03 PM 87.8 °F 102.5 °F 78.8 °F 75% 30.09 in 4.0 mi NNW 2.3 mph - N/A Rain Light Rain
12:04 PM 87.8 °F 102.5 °F 78.8 °F 75% 30.09 in 5.0 mi Variable 2.3 mph - N/A   Haze
12:51 PM 87.8 °F 102.5 °F 78.8 °F 75% 30.08 in 7.0 mi NW 4.6 mph - N/A   Light Drizzle
12:58 PM 87.3 °F 101.5 °F 78.8 °F 76% 30.08 in 10.0 mi Variable 2.3 mph - 0.00 in Rain Light Rain
1:12 PM 86.0 °F 99.3 °F 78.8 °F 79% 30.07 in 10.0 mi Variable 5.8 mph - N/A   Scattered Clouds
1:19 PM 86.0 °F 99.3 °F 78.8 °F 79% 30.07 in 8.0 mi WNW 9.2 mph - N/A Rain Light Rain
1:29 PM 86.0 °F 99.3 °F 78.8 °F 79% 30.07 in 2.5 mi Variable 2.3 mph - N/A Rain Light Rain
1:31 PM 86.0 °F 99.3 °F 78.8 °F 79% 30.07 in 5.0 mi Variable 3.5 mph - N/A   Haze
1:36 PM 86.0 °F 99.3 °F 78.8 °F 79% 30.07 in 6.0 mi Variable 1.2 mph - N/A Rain Light Rain
1:46 PM 86.0 °F 101.9 °F 80.6 °F 84% 30.06 in 8.0 mi Calm Calm - N/A   Mostly Cloudy
1:58 PM 85.6 °F 99.7 °F 79.5 °F 82% 30.06 in 10.0 mi SSE 2.3 mph - 0.01 in   Mostly Cloudy
2:58 PM 88.5 °F 102.2 °F 78.1 °F 71% 30.04 in 10.0 mi Variable 6.9 mph - N/A   Mostly Cloudy
3:08 PM 89.6 °F 104.7 °F 78.8 °F 70% 30.03 in 2.5 mi North 5.8 mph 19.6 mph N/A   Haze
3:13 PM 89.6 °F 104.7 °F 78.8 °F 70% 30.03 in 6.0 mi NNW 6.9 mph - N/A   Haze
3:58 PM 91.2 °F 106.7 °F 78.6 °F 66% 30.03 in 10.0 mi Variable 5.8 mph - N/A Thunderstorm Partly Cloudy
4:58 PM 88.5 °F 101.6 °F 77.7 °F 70% 30.02 in 10.0 mi NW 5.8 mph - N/A   Clear
5:58 PM 85.8 °F 98.8 °F 78.8 °F 79% 30.02 in 10.0 mi WNW 6.9 mph - N/A   Partly Cloudy
6:58 PM 86.0 °F 99.3 °F 78.6 °F 79% 30.03 in 10.0 mi WNW 3.5 mph - N/A   Clear
7:58 PM 85.6 °F 97.3 °F 77.7 °F 77% 30.04 in 10.0 mi West 2.3 mph - N/A   Clear
8:58 PM 83.7 °F 94.1 °F 77.9 °F 83% 30.04 in 10.0 mi WSW 3.5 mph - N/A   Clear
9:58 PM 82.9 °F 92.8 °F 77.9 °F 85% 30.05 in 10.0 mi WSW 4.6 mph - N/A   Partly Cloudy
10:58 PM 82.6 °F 92.3 °F 78.3 °F 87% 30.06 in 10.0 mi West 2.3 mph - N/A   Clear
11:58 PM 82.2 °F 91.6 °F 78.4 °F 88% 30.05 in 10.0 mi West 3.5 mph - N/A   Partly Cloudy